Weather History for Ruidoso, NM

Change the Weather History Date:

Sunday, October 30, 2011

  Actual Average Record
Temperature  
Mean Temperature 50 °F -  
Max Temperature 59 °F 58 °F 73 °F (2001)
Min Temperature 42 °F 37 °F 30 °F (1996)
Degree Days  
Heating Degree Days 14    
Moisture  
Dew Point 23 °F    
Average Humidity 36    
Maximum Humidity 61    
Minimum Humidity 25    
Precipitation  
Precipitation 0.00 in - - ()
Sea Level Pressure  
Sea Level Pressure 30.28 in    
Wind  
Wind Speed 8 mph (South)    
Max Wind Speed 14 mph    
Max Gust Speed 23 mph    
Visibility 10 miles    
Events      
Averages and records for this station are not official NWS values.
T = Trace of Precipitation, MM = Missing Value Source: NWS Daily Summary

Daily Weather History Graph

Daily Weather History Graph

Search for Another Location

Airport:

Trip Planner

Search our weather history database for the weather conditions in past years. The results will help you decide how hot, cold, wet, or windy it might be!

Date:

Astronomy

Oct. 30, 2011 Rise Set
Actual Time 7:18 AM MDT 6:12 PM MDT
Civil Twilight 6:53 AM MDT 6:37 PM MDT
Nautical Twilight 6:24 AM MDT 7:07 PM MDT
Astronomical Twilight 5:55 AM MDT 7:36 PM MDT
Moon 11:32 AM MDT (10/30) 9:51 PM MDT (10/30)
Length of Visible Light 11h 44m
Length of Day
10h 53m
Waxing Crescent, 20% of the Moon is Illuminated
Oct 30
Waxing Crescent
Nov 2
First Quarter
Nov 10
Full
Nov 18
Last Quarter
Nov 24
New

Hourly Weather History & Observations

Time (MDT) Temp. Windchill Dew Point Humidity Pressure Visibility Wind Dir Wind Speed Gust Speed Precip Events Conditions
12:15 AM 44.6 °F 42.2 °F 32.0 °F 61% 30.20 in 10.0 mi NE 4.6 mph - N/A   Clear
12:35 AM 46.4 °F 45.2 °F 30.2 °F 53% 30.21 in 10.0 mi NNE 3.5 mph - N/A   Clear
12:55 AM 46.4 °F 41.5 °F 30.2 °F 53% 30.20 in 10.0 mi WNW 10.4 mph - N/A   Clear
1:15 AM 46.4 °F 44.3 °F 28.4 °F 50% 30.20 in 10.0 mi West 4.6 mph - N/A   Clear
1:55 AM 44.6 °F 41.4 °F 30.2 °F 57% 30.21 in 10.0 mi North 5.8 mph - N/A   Clear
2:15 AM 46.4 °F 41.1 °F 30.2 °F 53% 30.21 in 10.0 mi NW 11.5 mph 18.4 mph N/A   Clear
2:35 AM 46.4 °F 41.5 °F 30.2 °F 53% 30.21 in 10.0 mi NNW 10.4 mph - N/A   Clear
2:55 AM 46.4 °F 40.4 °F 28.4 °F 50% 30.21 in 10.0 mi NW 13.8 mph 20.7 mph N/A   Clear
3:15 AM 46.4 °F 40.7 °F 28.4 °F 50% 30.21 in 10.0 mi WNW 12.7 mph 23.0 mph N/A   Clear
3:35 AM 46.4 °F 41.5 °F 24.8 °F 43% 30.20 in 10.0 mi WNW 10.4 mph - N/A   Clear
3:55 AM 46.4 °F 45.2 °F 23.0 °F 40% 30.20 in 10.0 mi West 3.5 mph - N/A   Clear
4:35 AM 46.4 °F 41.1 °F 23.0 °F 40% 30.21 in 10.0 mi WNW 11.5 mph 17.3 mph N/A   Clear
4:55 AM 48.2 °F - 19.4 °F 32% 30.23 in 10.0 mi North 6.9 mph - N/A   Clear
5:15 AM 46.4 °F 42.9 °F 21.2 °F 37% 30.24 in 10.0 mi NW 6.9 mph - N/A   Clear
5:35 AM 46.4 °F 43.5 °F 19.4 °F 34% 30.25 in 10.0 mi NW 5.8 mph - N/A   Clear
5:55 AM 44.6 °F 40.2 °F 21.2 °F 39% 30.26 in 10.0 mi West 8.1 mph - N/A   Clear
6:15 AM 44.6 °F 40.2 °F 19.4 °F 37% 30.27 in 10.0 mi West 8.1 mph - N/A   Clear
6:35 AM 44.6 °F 39.7 °F 17.6 °F 34% 30.26 in 10.0 mi West 9.2 mph - N/A   Clear
7:15 AM 42.8 °F 38.0 °F 17.6 °F 36% 30.28 in 10.0 mi NNW 8.1 mph - N/A   Clear
7:35 AM 44.6 °F 38.8 °F 17.6 °F 34% 30.29 in 10.0 mi NW 11.5 mph - N/A   Clear
7:55 AM 44.6 °F 39.7 °F 17.6 °F 34% 30.30 in 10.0 mi NW 9.2 mph 17.3 mph N/A   Clear
8:15 AM 44.6 °F 39.2 °F 19.4 °F 37% 30.31 in 10.0 mi NW 10.4 mph - N/A   Clear
8:35 AM 46.4 °F 42.9 °F 19.4 °F 34% 30.32 in 10.0 mi WNW 6.9 mph - N/A   Clear
8:55 AM 46.4 °F 43.5 °F 21.2 °F 37% 30.33 in 10.0 mi SSE 5.8 mph - N/A   Clear
9:15 AM 48.2 °F - 21.2 °F 34% 30.34 in 10.0 mi South 5.8 mph - N/A   Clear
9:35 AM 48.2 °F - 19.4 °F 32% 30.35 in 10.0 mi SSE 10.4 mph - N/A   Clear
9:55 AM 50.0 °F - 19.4 °F 30% 30.35 in 10.0 mi SE 9.2 mph - N/A   Clear
10:15 AM 50.0 °F - 19.4 °F 30% 30.35 in 10.0 mi SSE 10.4 mph - N/A   Clear
10:35 AM 50.0 °F - 17.6 °F 28% 30.35 in 10.0 mi SE 8.1 mph - N/A   Clear
10:55 AM 51.8 °F - 19.4 °F 28% 30.35 in 10.0 mi SSE 9.2 mph - N/A   Clear
11:35 AM 53.6 °F - 19.4 °F 26% 30.35 in 10.0 mi SE 6.9 mph - N/A   Clear
11:55 AM 53.6 °F - 19.4 °F 26% 30.35 in 10.0 mi SE 4.6 mph - N/A   Clear
12:15 PM 55.4 °F - 21.2 °F 26% 30.35 in 10.0 mi East 4.6 mph - N/A   Clear
12:35 PM 55.4 °F - 21.2 °F 26% 30.34 in 10.0 mi South 8.1 mph - N/A   Clear
1:15 PM 55.4 °F - 21.2 °F 26% 30.32 in 10.0 mi Calm Calm - N/A   Clear
1:35 PM 57.2 °F - 23.0 °F 27% 30.32 in 10.0 mi East 6.9 mph - N/A   Clear
1:55 PM 57.2 °F - 23.0 °F 27% 30.31 in 10.0 mi East 3.5 mph - N/A   Clear
2:35 PM 59.0 °F - 23.0 °F 25% 30.30 in 10.0 mi ESE 5.8 mph - N/A   Clear
2:55 PM 59.0 °F - 23.0 °F 25% 30.29 in 10.0 mi SE 5.8 mph - N/A   Clear
3:15 PM 59.0 °F - 24.8 °F 27% 30.30 in 10.0 mi SSE 10.4 mph - N/A   Clear
3:35 PM 59.0 °F - 24.8 °F 27% 30.30 in 10.0 mi SSW 3.5 mph - N/A   Clear
3:55 PM 59.0 °F - 24.8 °F 27% 30.29 in 10.0 mi SE 10.4 mph - N/A   Clear
4:15 PM 59.0 °F - 24.8 °F 27% 30.30 in 10.0 mi SSE 9.2 mph - N/A   Clear
4:35 PM 59.0 °F - 24.8 °F 27% 30.30 in 10.0 mi SE 10.4 mph - N/A   Clear
5:15 PM 57.2 °F - 24.8 °F 29% 30.31 in 10.0 mi SE 11.5 mph - N/A   Clear
5:35 PM 55.4 °F - 24.8 °F 31% 30.31 in 10.0 mi SE 9.2 mph - N/A   Clear
5:55 PM 53.6 °F - 24.8 °F 33% 30.32 in 10.0 mi SE 10.4 mph - N/A   Clear
6:15 PM 50.0 °F - 24.8 °F 37% 30.33 in 10.0 mi ESE 4.6 mph - N/A   Clear
6:35 PM 48.2 °F - 24.8 °F 40% 30.33 in 10.0 mi ESE 4.6 mph - N/A   Clear
6:55 PM 48.2 °F - 24.8 °F 40% 30.34 in 10.0 mi SE 6.9 mph - N/A   Clear
7:15 PM 46.4 °F 43.5 °F 24.8 °F 43% 30.35 in 10.0 mi SSE 5.8 mph - N/A   Clear
7:35 PM 46.4 °F 43.5 °F 24.8 °F 43% 30.35 in 10.0 mi SE 5.8 mph - N/A   Clear
7:55 PM 44.6 °F 43.1 °F 24.8 °F 46% 30.36 in 10.0 mi SSE 3.5 mph - N/A   Clear
8:15 PM 46.4 °F 45.2 °F 24.8 °F 43% 30.36 in 10.0 mi South 3.5 mph - N/A   Clear
8:35 PM 46.4 °F 45.2 °F 24.8 °F 43% 30.36 in 10.0 mi SE 3.5 mph - N/A   Clear
8:55 PM 44.6 °F - 24.8 °F 46% 30.36 in 10.0 mi Calm Calm - N/A   Clear
9:15 PM 44.6 °F - 24.8 °F 46% 30.36 in 10.0 mi Calm Calm - N/A   Clear
9:35 PM 44.6 °F - 24.8 °F 46% 30.37 in 10.0 mi Calm Calm - N/A   Clear
9:55 PM 44.6 °F - 24.8 °F 46% 30.37 in 10.0 mi Calm Calm - N/A   Clear
10:15 PM 44.6 °F - 24.8 °F 46% 30.37 in 10.0 mi Calm Calm - N/A   Clear
10:35 PM 44.6 °F - 24.8 °F 46% 30.37 in 10.0 mi Calm Calm - N/A   Clear
10:55 PM 42.8 °F 40.1 °F 24.8 °F 49% 30.37 in 10.0 mi NNE 4.6 mph - N/A   Clear
11:15 PM 39.2 °F - 24.8 °F 56% 30.37 in 10.0 mi Calm Calm - N/A   Clear
11:35 PM 41.0 °F - 24.8 °F 53% 30.37 in 10.0 mi Calm Calm - N/A   Clear
11:55 PM 41.0 °F - 24.8 °F 53% 30.36 in 10.0 mi Calm Calm - N/A   Clear